Location: Poughquag
(41.6090°N, 73.6820°W)
Time: 13:52:58
(UTC-04:00)

Vanguard 2 - Pass Details

Date: 05 June 2020
Orbit: 552 x 2938 km, 32.9° (Epoch: 05 July)

Event Time Altitude Azimuth Distance (km) Brightness Sun altitude
Rises 17:06:05 0° 226° (SW) 6,782 12.9 34.6°
Reaches altitude 10° 17:11:08 10° 220° (SW) 5,703 12.6 33.6°
Maximum altitude 17:26:13 41° 159° (SSE) 3,190 10.8 30.8°
Drops below altitude 10° 17:37:04 10° 95° (E) 4,165 10.8 28.8°
Sets 17:40:05 0° 88° (E) 4,857 11.1 28.2°
